Year,Month,Day,Hour,Minute,Value (Times are PST for windgust in km/hr)
2017,09,28,03,02,1.60
2017,09,28,04,15,4.80
2017,09,28,04,35,3.20
2017,09,28,05,57,6.40
2017,09,28,05,58,3.20
2017,09,28,06,13,4.80
2017,09,28,06,14,4.80
2017,09,28,06,19,4.80
2017,09,28,06,20,4.80
2017,09,28,06,24,3.20
2017,09,28,06,26,4.80
2017,09,28,06,27,11.30
2017,09,28,06,28,9.60
2017,09,28,06,29,6.40
2017,09,28,06,30,6.40
2017,09,28,06,31,4.80
2017,09,28,06,32,4.80
2017,09,28,06,33,6.40
2017,09,28,06,34,9.60
2017,09,28,06,35,4.80
2017,09,28,06,36,6.40
2017,09,28,06,37,4.80
2017,09,28,06,51,3.20
2017,09,28,06,57,3.20
2017,09,28,06,58,1.60
2017,09,28,07,31,1.60
2017,09,28,07,32,1.60
2017,09,28,07,44,1.60
2017,09,28,08,12,3.20
2017,09,28,08,13,1.60
2017,09,28,08,26,9.60
2017,09,28,08,27,3.20
2017,09,28,08,28,3.20
2017,09,28,08,36,6.40
2017,09,28,08,37,8.10
2017,09,28,08,38,4.80
2017,09,28,08,39,3.20
2017,09,28,08,40,4.80
2017,09,28,08,41,9.60
2017,09,28,08,42,6.40
2017,09,28,08,43,6.40
2017,09,28,08,44,11.30
2017,09,28,08,45,14.50
2017,09,28,08,46,8.10
2017,09,28,08,47,4.80
2017,09,28,08,48,9.60
2017,09,28,08,49,8.10
2017,09,28,08,50,6.40
2017,09,28,08,51,17.70
2017,09,28,08,52,16.10
2017,09,28,08,53,3.20
2017,09,28,08,54,4.80
2017,09,28,08,55,9.60
2017,09,28,08,56,4.80
2017,09,28,08,57,8.10
2017,09,28,08,58,12.90
2017,09,28,08,59,14.50
2017,09,28,09,00,16.10
2017,09,28,09,01,16.10
2017,09,28,09,02,8.10
2017,09,28,09,03,11.30
2017,09,28,09,04,12.90
2017,09,28,09,05,14.50
2017,09,28,09,06,22.50
2017,09,28,09,07,14.50
2017,09,28,09,08,17.70
2017,09,28,09,09,19.30
2017,09,28,09,10,17.70
2017,09,28,09,11,8.10
2017,09,28,09,12,6.40
2017,09,28,09,13,17.70
2017,09,28,09,14,9.60
2017,09,28,09,15,25.70
2017,09,28,09,16,19.30
2017,09,28,09,17,14.50
2017,09,28,09,18,11.30
2017,09,28,09,19,9.60
2017,09,28,09,20,19.30
2017,09,28,09,21,17.70
2017,09,28,09,22,19.30
2017,09,28,09,23,8.10
2017,09,28,09,24,16.10
2017,09,28,09,25,14.50
2017,09,28,09,26,9.60
2017,09,28,09,27,16.10
2017,09,28,09,28,14.50
2017,09,28,09,29,24.20
2017,09,28,09,30,19.30
2017,09,28,09,31,11.30
2017,09,28,09,32,14.50
2017,09,28,09,33,17.70
2017,09,28,09,34,17.70
2017,09,28,09,35,17.70
2017,09,28,09,36,16.10
2017,09,28,09,37,16.10
2017,09,28,09,38,14.50
2017,09,28,09,39,9.60
2017,09,28,09,40,9.60
2017,09,28,09,41,16.10
2017,09,28,09,42,11.30
2017,09,28,09,43,9.60
2017,09,28,09,44,6.40
2017,09,28,09,45,16.10
2017,09,28,09,46,8.10
2017,09,28,09,47,4.80
2017,09,28,09,48,11.30
2017,09,28,09,49,19.30
2017,09,28,09,50,16.10
2017,09,28,09,51,9.60
2017,09,28,09,52,17.70
2017,09,28,09,53,17.70
2017,09,28,09,54,19.30
2017,09,28,09,55,17.70
2017,09,28,09,56,11.30
2017,09,28,09,57,8.10
2017,09,28,09,58,3.20
2017,09,28,10,00,1.60
2017,09,28,10,01,14.50
2017,09,28,10,02,8.10
2017,09,28,10,03,16.10
2017,09,28,10,04,14.50
2017,09,28,10,05,11.30
2017,09,28,10,06,22.50
2017,09,28,10,07,14.50
2017,09,28,10,08,11.30
2017,09,28,10,09,19.30
2017,09,28,10,10,17.70
2017,09,28,10,11,12.90
2017,09,28,10,12,16.10
2017,09,28,10,13,9.60
2017,09,28,10,14,16.10
2017,09,28,10,15,11.30
2017,09,28,10,16,17.70
2017,09,28,10,17,17.70
2017,09,28,10,18,16.10
2017,09,28,10,19,11.30
2017,09,28,10,20,14.50
2017,09,28,10,21,17.70
2017,09,28,10,22,11.30
2017,09,28,10,23,6.40
2017,09,28,10,24,6.40
2017,09,28,10,25,4.80
2017,09,28,10,26,11.30
2017,09,28,10,27,8.10
2017,09,28,10,28,9.60
2017,09,28,10,29,9.60
2017,09,28,10,30,8.10
2017,09,28,10,31,8.10
2017,09,28,10,32,14.50
2017,09,28,10,33,9.60
2017,09,28,10,34,9.60
2017,09,28,10,35,12.90
2017,09,28,10,36,14.50
2017,09,28,10,37,16.10
2017,09,28,10,38,14.50
2017,09,28,10,39,16.10
2017,09,28,10,40,16.10
2017,09,28,10,41,19.30
2017,09,28,10,42,16.10
2017,09,28,10,43,16.10
2017,09,28,10,44,17.70
2017,09,28,10,45,16.10
2017,09,28,10,46,22.50
2017,09,28,10,47,20.90
2017,09,28,10,48,20.90
2017,09,28,10,49,17.70
2017,09,28,10,50,22.50
2017,09,28,10,51,17.70
2017,09,28,10,52,11.30
2017,09,28,10,53,19.30
2017,09,28,10,54,14.50
2017,09,28,10,55,11.30
2017,09,28,10,56,6.40
2017,09,28,10,57,19.30
2017,09,28,10,58,11.30
2017,09,28,10,59,16.10
2017,09,28,11,00,11.30
2017,09,28,11,01,4.80
2017,09,28,11,02,4.80
2017,09,28,11,03,3.20
2017,09,28,11,04,17.70
2017,09,28,11,05,14.50
2017,09,28,11,06,9.60
2017,09,28,11,07,14.50
2017,09,28,11,08,11.30
2017,09,28,11,09,22.50
2017,09,28,11,10,16.10
2017,09,28,11,11,16.10
2017,09,28,11,12,3.20
2017,09,28,11,13,20.90
2017,09,28,11,14,19.30
2017,09,28,11,15,16.10
2017,09,28,11,16,16.10
2017,09,28,11,17,11.30
2017,09,28,11,18,12.90
2017,09,28,11,19,11.30
2017,09,28,11,20,20.90
2017,09,28,11,21,20.90
2017,09,28,11,22,16.10
2017,09,28,11,23,16.10
2017,09,28,11,24,11.30
2017,09,28,11,25,8.10
2017,09,28,11,26,9.60
2017,09,28,11,27,17.70
2017,09,28,11,28,17.70
2017,09,28,11,29,17.70
2017,09,28,11,30,17.70
2017,09,28,11,31,20.90
2017,09,28,11,32,14.50
2017,09,28,11,33,11.30
2017,09,28,11,34,22.50
2017,09,28,11,35,20.90
2017,09,28,11,36,14.50
2017,09,28,11,37,19.30
2017,09,28,11,38,19.30
2017,09,28,11,39,20.90
2017,09,28,11,40,16.10
2017,09,28,11,41,11.30
2017,09,28,11,42,11.30
2017,09,28,11,43,8.10
2017,09,28,11,44,11.30
2017,09,28,11,45,16.10
2017,09,28,11,46,16.10
2017,09,28,11,47,14.50
2017,09,28,11,48,16.10
2017,09,28,11,49,17.70
2017,09,28,11,50,19.30
2017,09,28,11,51,14.50
2017,09,28,11,52,19.30
2017,09,28,11,53,4.80
2017,09,28,11,54,6.40
2017,09,28,11,55,8.10
2017,09,28,11,56,8.10
2017,09,28,11,57,9.60
2017,09,28,11,58,6.40
2017,09,28,11,59,4.80
2017,09,28,12,00,20.90
2017,09,28,12,01,14.50
2017,09,28,12,02,11.30
2017,09,28,12,03,14.50
2017,09,28,12,04,17.70
2017,09,28,12,05,20.90
2017,09,28,12,06,19.30
2017,09,28,12,07,17.70
2017,09,28,12,08,16.10
2017,09,28,12,09,17.70
2017,09,28,12,10,14.50
2017,09,28,12,11,17.70
2017,09,28,12,12,16.10
2017,09,28,12,13,22.50
2017,09,28,12,14,19.30
2017,09,28,12,15,12.90
2017,09,28,12,16,17.70
2017,09,28,12,17,17.70
2017,09,28,12,18,20.90
2017,09,28,12,19,17.70
2017,09,28,12,20,16.10
2017,09,28,12,21,11.30
2017,09,28,12,22,9.60
2017,09,28,12,23,20.90
2017,09,28,12,24,16.10
2017,09,28,12,25,14.50
2017,09,28,12,26,8.10
2017,09,28,12,27,9.60
2017,09,28,12,28,16.10
2017,09,28,12,29,20.90
2017,09,28,12,30,14.50
2017,09,28,12,31,11.30
2017,09,28,12,32,19.30
2017,09,28,12,33,19.30
2017,09,28,12,34,16.10
2017,09,28,12,35,17.70
2017,09,28,12,36,19.30
2017,09,28,12,37,19.30
2017,09,28,12,38,14.50
2017,09,28,12,39,9.60
2017,09,28,12,40,14.50
2017,09,28,12,41,20.90
2017,09,28,12,42,17.70
2017,09,28,12,43,16.10
2017,09,28,12,44,19.30
2017,09,28,12,45,12.90
2017,09,28,12,46,17.70
2017,09,28,12,47,19.30
2017,09,28,12,48,19.30
2017,09,28,12,49,14.50
2017,09,28,12,50,19.30
2017,09,28,12,51,19.30
2017,09,28,12,52,14.50
2017,09,28,12,53,17.70
2017,09,28,12,54,14.50
2017,09,28,12,55,11.30
2017,09,28,12,56,11.30
2017,09,28,12,57,20.90
2017,09,28,12,58,17.70
2017,09,28,12,59,22.50
2017,09,28,13,00,19.30
2017,09,28,13,01,17.70
2017,09,28,13,02,17.70
2017,09,28,13,03,20.90
2017,09,28,13,04,16.10
2017,09,28,13,05,19.30
2017,09,28,13,06,19.30
2017,09,28,13,07,11.30
2017,09,28,13,08,19.30
2017,09,28,13,09,14.50
2017,09,28,13,10,16.10
2017,09,28,13,11,17.70
2017,09,28,13,12,8.10
2017,09,28,13,13,17.70
2017,09,28,13,14,9.60
2017,09,28,13,15,4.80
2017,09,28,13,16,3.20
2017,09,28,13,17,11.30
2017,09,28,13,18,16.10
2017,09,28,13,19,16.10
2017,09,28,13,20,14.50
2017,09,28,13,21,11.30
2017,09,28,13,22,14.50
2017,09,28,13,23,17.70
2017,09,28,13,24,20.90
2017,09,28,13,25,12.90
2017,09,28,13,26,14.50
2017,09,28,13,27,9.60
2017,09,28,13,28,17.70
2017,09,28,13,29,16.10
2017,09,28,13,30,17.70
2017,09,28,13,31,19.30
2017,09,28,13,32,17.70
2017,09,28,13,33,11.30
2017,09,28,13,34,12.90
2017,09,28,13,35,11.30
2017,09,28,13,36,20.90
2017,09,28,13,37,19.30
2017,09,28,13,38,17.70
2017,09,28,13,39,19.30
2017,09,28,13,40,19.30
2017,09,28,13,41,17.70
2017,09,28,13,42,16.10
2017,09,28,13,43,19.30
2017,09,28,13,44,11.30
2017,09,28,13,45,16.10
2017,09,28,13,46,16.10
2017,09,28,13,47,19.30
2017,09,28,13,48,19.30
2017,09,28,13,49,19.30
2017,09,28,13,50,17.70
2017,09,28,13,51,17.70
2017,09,28,13,52,9.60
2017,09,28,13,53,11.30
2017,09,28,13,54,11.30
2017,09,28,13,55,17.70
2017,09,28,13,56,20.90
2017,09,28,13,57,17.70
2017,09,28,13,58,20.90
2017,09,28,13,59,14.50
2017,09,28,14,00,14.50
2017,09,28,14,01,12.90
2017,09,28,14,02,16.10
2017,09,28,14,03,16.10
2017,09,28,14,04,8.10
2017,09,28,14,05,14.50
2017,09,28,14,06,17.70
2017,09,28,14,07,19.30
2017,09,28,14,08,14.50
2017,09,28,14,09,9.60
2017,09,28,14,10,16.10
2017,09,28,14,11,14.50
2017,09,28,14,12,11.30
2017,09,28,14,13,17.70
2017,09,28,14,14,12.90
2017,09,28,14,15,9.60
2017,09,28,14,16,19.30
2017,09,28,14,17,20.90
2017,09,28,14,18,14.50
2017,09,28,14,19,12.90
2017,09,28,14,20,19.30
2017,09,28,14,21,19.30
2017,09,28,14,22,17.70
2017,09,28,14,23,16.10
2017,09,28,14,24,16.10
2017,09,28,14,25,11.30
2017,09,28,14,26,9.60
2017,09,28,14,27,16.10
2017,09,28,14,28,14.50
2017,09,28,14,29,11.30
2017,09,28,14,30,11.30
2017,09,28,14,31,9.60
2017,09,28,14,32,8.10
2017,09,28,14,33,16.10
2017,09,28,14,34,16.10
2017,09,28,14,35,16.10
2017,09,28,14,36,11.30
2017,09,28,14,37,17.70
2017,09,28,14,38,17.70
2017,09,28,14,39,9.60
2017,09,28,14,40,22.50
2017,09,28,14,41,16.10
2017,09,28,14,42,17.70
2017,09,28,14,43,16.10
2017,09,28,14,44,12.90
2017,09,28,14,45,14.50
2017,09,28,14,46,14.50
2017,09,28,14,47,14.50
2017,09,28,14,48,19.30
2017,09,28,14,49,12.90
2017,09,28,14,50,14.50
2017,09,28,14,51,16.10
2017,09,28,14,52,11.30
2017,09,28,14,53,14.50
2017,09,28,14,54,16.10
2017,09,28,14,55,14.50
2017,09,28,14,56,8.10
2017,09,28,14,57,16.10
2017,09,28,14,58,14.50
2017,09,28,14,59,12.90
2017,09,28,15,00,6.40
2017,09,28,15,01,17.70
2017,09,28,15,02,16.10
2017,09,28,15,03,11.30
2017,09,28,15,04,16.10
2017,09,28,15,05,9.60
2017,09,28,15,06,11.30
2017,09,28,15,07,17.70
2017,09,28,15,08,16.10
2017,09,28,15,09,14.50
2017,09,28,15,10,9.60
2017,09,28,15,11,17.70
2017,09,28,15,12,16.10
2017,09,28,15,13,11.30
2017,09,28,15,14,14.50
2017,09,28,15,15,11.30
2017,09,28,15,16,9.60
2017,09,28,15,17,6.40
2017,09,28,15,18,9.60
2017,09,28,15,19,11.30
2017,09,28,15,20,16.10
2017,09,28,15,21,17.70
2017,09,28,15,22,6.40
2017,09,28,15,23,8.10
2017,09,28,15,24,17.70
2017,09,28,15,25,16.10
2017,09,28,15,26,16.10
2017,09,28,15,27,14.50
2017,09,28,15,28,19.30
2017,09,28,15,29,17.70
2017,09,28,15,30,12.90
2017,09,28,15,31,14.50
2017,09,28,15,32,9.60
2017,09,28,15,33,8.10
2017,09,28,15,34,14.50
2017,09,28,15,35,11.30
2017,09,28,15,36,11.30
2017,09,28,15,37,8.10
2017,09,28,15,38,9.60
2017,09,28,15,39,11.30
2017,09,28,15,40,14.50
2017,09,28,15,41,14.50
2017,09,28,15,42,14.50
2017,09,28,15,43,16.10
2017,09,28,15,44,9.60
2017,09,28,15,45,8.10
2017,09,28,15,46,11.30
2017,09,28,15,47,11.30
2017,09,28,15,48,16.10
2017,09,28,15,49,16.10
2017,09,28,15,50,12.90
2017,09,28,15,51,9.60
2017,09,28,15,52,14.50
2017,09,28,15,53,11.30
2017,09,28,15,54,6.40
2017,09,28,15,55,3.20
2017,09,28,15,56,8.10
2017,09,28,15,57,4.80
2017,09,28,15,58,4.80
2017,09,28,15,59,9.60
2017,09,28,16,00,9.60
2017,09,28,16,01,9.60
2017,09,28,16,02,11.30
2017,09,28,16,03,11.30
2017,09,28,16,04,9.60
2017,09,28,16,05,14.50
2017,09,28,16,06,8.10
2017,09,28,16,07,11.30
2017,09,28,16,08,8.10
2017,09,28,16,09,9.60
2017,09,28,16,10,6.40
2017,09,28,16,11,8.10
2017,09,28,16,12,6.40
2017,09,28,16,13,4.80
2017,09,28,16,14,1.60
2017,09,28,16,15,3.20
2017,09,28,16,16,4.80
2017,09,28,16,17,4.80
2017,09,28,16,18,9.60
2017,09,28,16,19,17.70
2017,09,28,16,20,11.30
2017,09,28,16,21,8.10
2017,09,28,16,22,4.80
2017,09,28,16,23,1.60
2017,09,28,16,24,6.40
2017,09,28,16,25,11.30
2017,09,28,16,26,9.60
2017,09,28,16,27,11.30
2017,09,28,16,28,4.80
2017,09,28,16,29,3.20
2017,09,28,16,31,3.20
2017,09,28,16,32,3.20
2017,09,28,16,33,1.60
2017,09,28,16,34,3.20
2017,09,28,16,35,4.80
2017,09,28,16,36,4.80
2017,09,28,16,37,3.20
2017,09,28,16,38,1.60
2017,09,28,16,39,4.80
2017,09,28,16,40,8.10
2017,09,28,16,41,4.80
2017,09,28,16,42,8.10
2017,09,28,16,43,14.50
2017,09,28,16,44,9.60
2017,09,28,16,45,9.60
2017,09,28,16,46,6.40
2017,09,28,16,47,3.20
2017,09,28,16,48,4.80
2017,09,28,16,49,6.40
2017,09,28,16,50,8.10
2017,09,28,16,51,6.40
2017,09,28,16,52,6.40
2017,09,28,16,53,8.10
2017,09,28,16,54,9.60
2017,09,28,16,55,8.10
2017,09,28,16,56,8.10
2017,09,28,16,57,6.40
2017,09,28,16,58,4.80
2017,09,28,16,59,6.40
2017,09,28,17,00,8.10
2017,09,28,17,01,8.10
2017,09,28,17,02,4.80
2017,09,28,17,03,6.40
2017,09,28,17,04,3.20
2017,09,28,17,05,4.80
2017,09,28,17,07,1.60
2017,09,28,17,08,4.80
2017,09,28,17,09,6.40
2017,09,28,17,10,3.20
2017,09,28,17,11,4.80
2017,09,28,17,12,6.40
2017,09,28,17,13,4.80
2017,09,28,17,14,6.40
2017,09,28,17,15,6.40
2017,09,28,17,16,9.60
2017,09,28,17,17,9.60
2017,09,28,17,18,11.30
2017,09,28,17,19,8.10
2017,09,28,17,20,6.40
2017,09,28,17,21,6.40
2017,09,28,17,22,3.20
2017,09,28,17,23,6.40
2017,09,28,17,24,9.60
2017,09,28,17,25,9.60
2017,09,28,17,26,9.60
2017,09,28,17,27,8.10
2017,09,28,17,28,8.10
2017,09,28,17,29,6.40
2017,09,28,17,30,1.60
2017,09,28,17,34,3.20
2017,09,28,18,03,3.20
2017,09,28,18,04,4.80
2017,09,28,18,05,4.80
2017,09,28,18,06,4.80
2017,09,28,18,07,3.20
2017,09,28,18,11,3.20
2017,09,28,18,12,4.80
2017,09,28,18,13,4.80
2017,09,28,18,14,4.80
2017,09,28,18,15,3.20
2017,09,28,18,18,4.80
2017,09,28,18,19,4.80
2017,09,28,18,20,4.80
2017,09,28,18,21,4.80
2017,09,28,18,22,1.60
2017,09,28,18,23,4.80
2017,09,28,18,26,1.60
2017,09,28,18,28,4.80
2017,09,28,18,29,1.60
2017,09,28,18,30,9.60
2017,09,28,18,31,6.40
2017,09,28,18,32,3.20
2017,09,28,18,35,3.20
2017,09,28,18,36,6.40
2017,09,28,18,37,4.80
2017,09,28,18,38,6.40
2017,09,28,18,39,4.80
2017,09,28,18,40,3.20
2017,09,28,18,43,3.20
2017,09,28,18,44,1.60
2017,09,28,18,48,3.20
2017,09,28,18,50,1.60
2017,09,28,19,04,1.60
2017,09,28,19,05,1.60
2017,09,28,19,14,1.60
2017,09,28,20,01,1.60
2017,09,28,20,06,1.60
2017,09,28,20,44,3.20
2017,09,28,20,48,3.20
2017,09,28,20,49,1.60
2017,09,28,20,50,3.20
2017,09,28,20,51,1.60
2017,09,28,21,25,3.20
2017,09,28,21,26,3.20
2017,09,28,23,10,1.60
2017,09,28,23,54,1.60
2017,09,28,23,55,3.20
2017,09,28,23,56,1.60
